Change the Weather History Date:

Thursday, April 17, 2014

  Actual Average Record
Temperature  
Mean Temperature 54 °F -  
Max Temperature 71 °F 77 °F 91 °F (2006)
Min Temperature 37 °F 51 °F 34 °F (1951)
Degree Days  
Heating Degree Days 11    
Growing Degree Days 4 (Base 50)    
Moisture  
Dew Point 38 °F    
Average Humidity 53    
Maximum Humidity 89    
Minimum Humidity 29    
Precipitation  
Precipitation 0.00 in - - ()
Sea Level Pressure  
Sea Level Pressure 30.19 in    
Wind  
Wind Speed 4 mph (East)    
Max Wind Speed 10 mph    
Max Gust Speed -    
Visibility 10 miles    
Events      
Averages and records for this station are not official NWS values.
T = Trace of Precipitation, MM = Missing Value Source: NWS Daily Summary

Daily Weather History Graph

Daily Weather History Graph

Search for Another Location

Airport or City:

Trip Planner

Search our weather history database for the weather conditions in past years. The results will help you decide how hot, cold, wet, or windy it might be!

Date:

Astronomy

Apr. 17, 2014 Rise Set
Actual Time 6:38 AM CDT 7:45 PM CDT
Civil Twilight 6:12 AM CDT 8:11 PM CDT
Nautical Twilight 5:41 AM CDT 8:42 PM CDT
Astronomical Twilight 5:09 AM CDT 9:15 PM CDT
Moon 10:27 PM CDT (4/17) 8:15 AM CDT (4/17)
Length of Visible Light 13h 59m
Length of Day
13h 07m
Waning Gibbous, 93% of the Moon is Illuminated
Apr 17
Waning Gibbous
Apr 22
Last Quarter
Apr 29
New
May 6
First Quarter
May 14
Full

Hourly Weather History & Observations

Time (CDT) Temp. Windchill Dew Point Humidity Pressure Visibility Wind Dir Wind Speed Gust Speed Precip Events Conditions
12:53 AM 46.0 °F 41.9 °F 35.1 °F 66% 30.16 in 10.0 mi East 8.1 mph - N/A   Clear
1:53 AM 44.1 °F 40.1 °F 35.1 °F 71% 30.17 in 10.0 mi ENE 6.9 mph - N/A   Clear
2:53 AM 46.0 °F 43.9 °F 36.0 °F 68% 30.16 in 10.0 mi East 4.6 mph - N/A   Clear
3:53 AM 44.1 °F - 35.1 °F 71% 30.16 in 10.0 mi Calm Calm - N/A   Clear
4:53 AM 41.0 °F - 36.0 °F 82% 30.17 in 10.0 mi Calm Calm - N/A   Clear
5:53 AM 39.9 °F - 36.0 °F 86% 30.18 in 10.0 mi Calm Calm - N/A   Clear
6:53 AM 37.9 °F - 35.1 °F 89% 30.19 in 10.0 mi Calm Calm - N/A   Clear
7:53 AM 43.0 °F - 37.9 °F 82% 30.23 in 10.0 mi Calm Calm - N/A   Clear
8:53 AM 51.1 °F - 39.9 °F 66% 30.24 in 10.0 mi Calm Calm - N/A   Clear
9:53 AM 57.0 °F - 37.9 °F 49% 30.25 in 10.0 mi ESE 5.8 mph - N/A   Clear
10:53 AM 62.6 °F - 37.4 °F 39% 30.25 in 10.0 mi Calm Calm - N/A   Clear
11:53 AM 64.4 °F - 37.4 °F 37% 30.23 in 10.0 mi Variable 4.6 mph - N/A   Clear
12:53 PM 66.0 °F - 36.0 °F 33% 30.20 in 10.0 mi ESE 10.4 mph - N/A   Clear
1:53 PM 66.9 °F - 35.1 °F 31% 30.19 in 10.0 mi East 5.8 mph - N/A   Mostly Cloudy
2:53 PM 69.1 °F - 35.1 °F 29% 30.18 in 10.0 mi Variable 3.5 mph - N/A   Mostly Cloudy
3:53 PM 69.1 °F - 36.0 °F 30% 30.17 in 10.0 mi Variable 5.8 mph - N/A   Mostly Cloudy
4:53 PM 71.1 °F - 37.9 °F 30% 30.16 in 10.0 mi Variable 5.8 mph - N/A   Mostly Cloudy
5:53 PM 69.1 °F - 35.1 °F 29% 30.16 in 10.0 mi SSE 4.6 mph - N/A   Overcast
6:53 PM 68.0 °F - 37.9 °F 33% 30.17 in 10.0 mi ESE 4.6 mph - N/A   Overcast
7:53 PM 66.0 °F - 37.9 °F 36% 30.17 in 10.0 mi ESE 3.5 mph - N/A   Overcast
8:53 PM 63.0 °F - 39.9 °F 43% 30.20 in 10.0 mi East 4.6 mph - N/A   Scattered Clouds
9:53 PM 59.0 °F - 43.0 °F 55% 30.22 in 10.0 mi East 3.5 mph - N/A   Partly Cloudy
10:53 PM 57.0 °F - 46.0 °F 67% 30.21 in 10.0 mi East 3.5 mph - N/A   Overcast
11:53 PM 59.0 °F - 45.0 °F 60% 30.19 in 10.0 mi East 3.5 mph - N/A   Mostly Cloudy